Regional Weather Roundup
Issued by NWS Little Rock, AR

Home | Current Version | Previous Version | Graphics & Text | Print | Product List | Glossary On
Versions: 1 2 3 4 5 6 7 8 9 10 11 12 13 14 15 16 17 18 19 20 21 22 23 24 25 26 27 28 29 30 31
000
ASUS44 KLZK 071005
RWRLZK

WEATHER ROUNDUP FOR ARKANSAS
NATIONAL WEATHER SERVICE LITTLE ROCK AR
400 AM CST WED DEC 07 2016

NOTE: "FAIR" INDICATES FEW OR NO CLOUDS BELOW 12,000 FEET WITH NO
SIGNIFICANT WEATHER AND/OR OBSTRUCTIONS TO VISIBILITY.

ARZ001-003-010-029-071100-
NORTHWEST ARKANSAS

CITY           SKY/WX    TMP DP  RH WIND       PRES   REMARKS
FAYETTEVILLE   CLEAR     24  23  96 CALM      30.14R
FORT SMITH     CLOUDY    40  28  62 E10       30.12S
HARRISON       CLEAR     27  22  81 N3        30.14F
BENTONVILLE    CLEAR     28  16  59 NE5       30.14S WCI  23
ROGERS         CLEAR     29  18  63 NE5       30.14S WCI  24
SILOAM SPGS    CLEAR     28  18  64 NE7       30.13F WCI  21
HIGHFILL       CLEAR     27  19  72 N6        30.13S WCI  20
$$

ARZ004-005-016-071100-
NORTH CENTRAL ARKANSAS

CITY           SKY/WX    TMP DP  RH WIND       PRES   REMARKS
BATESVILLE     MOCLDY    36  28  75 N3        30.17S
FLIPPIN        CLEAR     34  19  55 N5        30.14F WCI  30
MTN HOME       CLEAR     30  21  69 NE3       30.16R
$$

ARZ040-041-071100-
WEST CENTRAL ARKANSAS

CITY           SKY/WX    TMP DP  RH WIND       PRES   REMARKS
MENA           CLOUDY    43  39  87 E7        30.09S
$$

ARZ009-017-025-026-028-071100-
NORTHEAST ARKANSAS

CITY           SKY/WX    TMP DP  RH WIND       PRES   REMARKS
CORNING        PTSUNNY   34  32  93 N7        30.18R WCI  28
JONESBORO      PTCLDY    35  32  88 N5        30.16R WCI  31
NEWPORT        CLEAR     35  31  85 N7        30.17R WCI  29
WALNUT RIDGE   CLOUDY    36  30  80 N7        30.17R
BLYTHEVILLE    PTCLDY    36  33  89 N6        30.15S
$$

ARZ022-023-033-042-044-071100-
CENTRAL ARKANSAS

CITY           SKY/WX    TMP DP  RH WIND       PRES   REMARKS
LITTLE ROCK    CLOUDY    42  36  79 NE7       30.15R
N LITTLE ROCK    N/A     40  35  79 E8        30.15S
JACKSONVILLE   CLOUDY    42  33  70 NE9       30.14R
SEARCY         CLOUDY    41  31  67 N9        30.17S
HOT SPRINGS    CLOUDY    44  35  70 E7        30.11F
RUSSELLVILLE   CLOUDY    38  35  89 CALM      30.15R
CLINTON        CLOUDY    37  28  70 CALM      30.15S
$$

ARZ036-071100-
EAST ARKANSAS

CITY           SKY/WX    TMP DP  RH WIND       PRES   REMARKS
WEST MEMPHIS   CLOUDY    41  37  86 N6        30.12F
$$

ARZ050-053-066-070-073-071100-
SOUTHWEST ARKANSAS

CITY           SKY/WX    TMP DP  RH WIND       PRES   REMARKS
ARKADELPHIA    CLOUDY    44  38  79 NE7       30.13S
CAMDEN         CLOUDY    45  37  76 N7        30.11F
TEXARKANA      CLOUDY    44  42  93 NE8       30.09S
EL DORADO      CLOUDY    45  43  93 N7        30.10R
DE QUEEN       CLOUDY    45  42  89 E9        30.08S
$$

ARZ056-057-069-071100-
SOUTHEAST ARKANSAS

CITY           SKY/WX    TMP DP  RH WIND       PRES   REMARKS
PINE BLUFF     CLOUDY    43  36  76 N7        30.13R
STUTTGART      CLOUDY    43  34  70 NE10      30.13S
MONTICELLO     CLOUDY    44  40  85 NE5       30.11R

$$






USA.gov is the U.S. government's official web portal to all federal, state and local government web resources and services.